Helicity
107 166 160 148 163 183 164 137 101 88 84 60 48 34 15 18 1 26 90 129 135 191 314 395 383 383 416 343 312 263 252 229 271 192 185 105 59 51 91 122 137 211 224 198
121 61 61 84 109 129 142 141 121 77 86 85 49 5 -9 -3 13 105 92 161 140 234 402 419 443 418 400 393 290 275 260 246 236 214 155 23 51 50 44 107 48 98 150 137
98 62 93 81 81 94 133 156 130 85 43 22 75 -27 -81 30 53 125 49 129 136 255 380 475 449 438 404 395 306 269 255 234 205 192 155 109 34 87 81 59 61 37 55 63
69 7 50 99 91 99 114 91 141 173 131 120 220 15 -28 -1 64 152 91 82 108 203 328 490 503 427 375 363 321 260 228 209 192 187 167 159 119 137 61 77 23 6 37 125
54 82 110 50 66 76 95 146 161 162 164 134 115 139 -59 -60 48 56 80 55 73 146 300 441 482 434 362 396 332 263 199 186 170 184 173 164 129 73 73 72 15 3 -53 -10
-31 33 72 67 142 121 147 153 146 134 146 169 128 190 -66 -59 -8 33 69 47 12 116 238 423 485 449 380 360 324 249 205 186 157 169 179 193 170 142 118 77 25 -31 -21 -60
36 11 69 126 174 182 198 178 155 150 270 228 82 105 13 -45 -16 35 46 30 27 91 278 366 468 422 351 367 319 241 202 197 161 156 159 191 186 186 168 128 49 59 22 -16
67 76 136 85 124 109 125 141 162 183 152 99 86 39 -41 -170 10 68 88 21 35 120 231 313 409 405 343 328 322 223 197 211 182 173 160 159 183 171 148 155 123 100 83 19
66 74 58 53 129 189 101 130 105 95 75 28 31 12 64 99 305 85 19 22 69 149 209 241 331 330 271 301 282 220 178 200 200 173 157 164 166 164 167 153 138 111 109 63
57 66 33 16 171 104 136 136 79 90 89 -31 49 68 166 253 171 234 142 106 158 131 154 224 252 169 163 263 279 247 166 190 191 203 166 148 153 157 161 175 194 169 103 96
65 53 51 24 62 140 169 110 46 44 106 -22 6 70 290 363 321 448 539 390 276 302 227 104 80 76 167 237 272 268 202 156 164 193 204 181 163 160 164 172 174 174 155 124
55 29 6 23 22 120 177 143 160 36 45 64 61 -15 107 381 443 664 514 401 560 518 448 240 133 135 118 141 212 291 242 211 197 174 178 185 167 140 168 175 146 147 164 161
46 49 41 77 74 115 167 125 129 39 50 -46 58 17 52 21 381 575 599 320 371 436 558 498 424 339 172 27 46 71 84 81 151 232 183 163 183 165 142 149 156 139 136 149
81 19 11 34 46 -24 -6 6 -4 59 50 -9 8 39 -15 -14 48 537 618 266 66 205 322 391 405 393 327 249 220 147 72 39 118 221 237 245 205 195 182 200 230 214 197 188
88 -3 18 27 33 12 3 7 -25 -33 14 34 55 -11 8 -15 -6 224 388 265 67 71 20 154 238 278 269 243 227 210 180 130 69 137 198 255 307 300 244 186 214 261 288 262
102 27 41 25 58 38 -34 35 10 -39 9 63 9 -50 33 41 23 98 55 321 77 100 88 34 5 99 185 202 264 269 229 172 118 159 84 95 115 216 292 328 344 278 238 254
98 77 45 -21 45 72 -12 40 -46 39 -22 61 27 8 -11 18 9 21 -7 65 80 119 131 96 84 62 75 140 184 223 276 244 225 212 220 221 230 128 99 203 250 307 346 327
93 92 48 50 89 -14 29 71 44 -19 13 20 -3 29 106 113 244 56 80 136 129 93 99 87 81 92 115 111 131 97 151 214 217 219 220 198 174 127 159 202 120 221 290 364
104 127 129 36 12 52 65 125 166 76 59 109 13 132 104 178 341 337 301 225 140 94 53 43 37 38 47 107 118 102 110 108 154 229 221 214 205 215 169 127 121 147 143 265
103 127 127 108 17 -12 54 93 37 63 120 186 229 146 211 317 284 260 215 173 153 72 37 41 59 47 83 105 65 56 91 137 175 169 147 126 114 136 166 199 147 91 114 121
47 115 110 120 84 83 26 54 144 94 107 176 353 408 410 416 334 240 186 160 114 102 112 102 83 76 85 77 53 48 53 63 68 76 59 54 50 59 74 104 119 103 83 118
2 -19 88 128 90 61 56 37 87 111 275 293 343 352 466 402 305 235 162 141 135 126 110 66 31 40 56 57 45 47 52 58 52 35 13 5 11 14 13 36 66 117 109 73
15 155 177 110 88 109 91 108 230 242 301 311 331 291 209 261 301 211 127 86 72 62 47 37 24 21 37 26 16 27 43 57 57 47 24 10 12 39 42 50 76 91 111 83
-53 41 79 68 90 164 227 258 291 352 303 269 219 273 299 223 181 104 89 79 63 75 62 39 48 37 34 27 15 13 32 32 35 42 47 35 23 25 73 54 72 89 80 110
9 -0 30 101 233 226 227 224 283 402 327 221 179 170 98 76 112 116 115 100 84 73 60 50 47 53 58 31 34 58 59 36 33 48 57 40 39 64 54 87 132 88 152 104
28 -7 -56 17 81 224 232 179 74 81 209 189 86 57 120 112 98 89 95 96 90 75 64 64 77 97 88 76 96 111 99 89 87 108 126 136 133 149 112 68 114 348 385 392
Wind_Speed
38 51 59 56 57 60 69 77 83 76 66 71 73 89 81 82 84 78 59 33 26 19 15 20 14 11 10 9 10 10 10 10 14 17 18 21 21 25 18 37 47 29 48 38
48 58 51 50 52 60 69 76 84 81 59 71 86 100 87 86 76 72 36 36 28 24 18 18 17 15 12 11 11 8 10 12 14 18 19 19 22 10 20 19 49 53 35 33
52 46 40 47 49 57 65 72 79 85 81 75 83 99 98 100 84 79 57 42 39 31 26 24 23 20 13 13 14 10 10 12 15 21 21 24 32 14 11 7 19 44 45 39
50 52 47 37 44 46 66 61 69 75 78 83 54 89 84 86 94 88 78 52 38 29 29 32 25 24 22 18 18 10 11 13 17 22 24 31 33 32 30 20 30 41 37 22
38 34 37 43 47 48 59 51 60 65 74 81 73 70 86 82 99 94 79 66 40 32 28 37 37 34 24 20 23 15 11 15 18 22 26 29 32 31 22 30 33 35 33 19
47 43 39 37 39 42 43 54 61 63 62 82 69 62 109 104 97 93 82 71 54 34 31 41 36 25 23 18 22 19 12 14 21 24 26 32 34 29 27 31 39 45 40 36
42 48 39 30 37 38 42 52 70 59 59 70 43 67 105 77 85 82 85 83 85 33 28 36 33 30 27 27 27 24 17 16 25 27 29 32 35 37 36 40 40 41 43 48
31 39 29 26 31 38 36 35 49 58 57 70 67 84 69 82 84 90 88 84 87 38 30 40 37 35 31 28 28 28 25 17 25 27 29 32 33 35 37 39 43 43 46 51
30 37 32 25 23 22 35 42 37 56 54 61 63 72 71 49 49 71 89 65 42 19 29 35 28 31 29 25 31 32 29 19 21 27 26 30 33 36 35 35 40 42 48 52
32 39 36 40 22 24 33 33 38 40 60 60 57 58 46 43 46 36 39 43 35 26 25 26 27 33 29 24 22 22 24 21 19 20 21 23 27 33 32 31 35 38 40 43
36 37 36 42 33 24 25 40 37 45 59 66 58 50 37 33 35 29 30 28 17 19 26 24 21 23 18 12 15 14 17 15 14 16 16 17 19 19 22 22 26 29 32 38
38 41 45 50 43 20 17 32 44 55 56 64 59 57 35 33 33 22 15 20 12 6 8 16 18 20 22 15 8 16 15 12 10 12 14 16 16 20 21 20 22 26 25 30
37 40 45 40 34 38 37 44 54 58 65 73 63 59 38 31 31 27 23 16 13 10 12 11 7 9 18 20 21 23 23 26 22 12 12 17 20 20 23 23 22 22 23 23
40 41 43 49 52 49 48 56 60 57 62 70 69 66 55 44 37 40 32 22 9 13 17 15 15 17 18 22 24 29 36 30 23 20 17 16 19 23 27 27 25 23 24 26
44 53 55 55 55 63 64 62 54 55 70 75 64 63 60 61 54 45 39 32 7 5 15 16 21 21 24 28 30 34 38 40 33 26 33 30 27 26 30 32 33 34 33 32
46 52 58 67 60 64 69 66 55 56 55 61 64 67 56 41 31 44 46 30 9 6 13 18 22 28 30 34 37 40 40 40 41 48 48 49 58 56 44 38 33 34 37 40
52 52 57 66 55 64 65 64 65 53 46 48 48 51 32 21 25 25 32 26 12 10 17 22 28 31 36 41 43 45 47 47 46 48 49 50 57 61 64 59 52 45 42 44
52 52 51 56 57 71 51 61 60 55 53 56 49 30 18 8 20 15 9 6 10 11 16 22 28 35 41 44 45 45 48 49 49 51 53 55 58 61 63 67 69 59 57 54
45 52 62 66 66 73 73 50 43 44 45 49 40 11 6 6 9 20 17 14 17 21 23 29 35 39 42 47 49 49 50 50 52 56 59 61 64 68 69 71 75 80 70 62
38 45 59 62 67 70 52 50 50 54 52 40 18 15 18 15 25 25 20 21 25 28 34 39 42 44 49 53 52 52 54 56 58 60 62 63 65 68 71 76 79 79 82 82
43 47 60 66 72 69 66 60 57 58 47 23 14 14 20 28 26 16 22 27 32 38 43 45 48 51 53 56 55 54 56 58 61 62 62 64 65 68 71 75 76 79 82 86
43 45 50 53 68 83 60 61 53 29 16 15 17 16 16 15 18 22 27 32 38 43 46 49 50 53 56 57 56 56 58 61 60 61 62 65 67 69 70 72 76 77 78 77
48 33 36 37 47 33 31 28 25 20 19 21 20 21 16 17 25 30 34 40 44 47 49 51 53 54 56 56 56 58 61 61 60 61 62 65 66 70 71 73 75 76 75 72
35 41 31 19 21 21 23 22 24 28 25 27 30 27 28 27 30 33 40 45 47 51 54 53 54 54 56 57 58 59 62 60 58 60 61 63 65 68 70 70 71 72 73 71
44 36 42 21 16 16 20 23 26 29 24 23 26 29 28 27 33 38 43 46 49 51 51 51 53 53 55 57 58 59 60 58 55 57 58 60 61 63 64 67 69 68 68 64
38 38 32 30 42 15 22 23 25 29 30 30 33 35 35 36 37 37 41 44 46 48 49 50 51 52 55 56 58 59 59 57 55 56 58 59 59 58 58 58 60 64 64 62
Wind_Direction
281 268 265 267 269 274 276 276 277 281 291 289 288 281 283 281 284 284 278 262 265 238 222 177 168 141 107 122 115 97 74 81 85 80 82 105 106 115 106 139 152 186 219 215
276 270 274 277 278 276 276 277 278 284 290 289 286 278 280 279 286 284 254 259 255 257 234 196 173 158 148 132 132 108 83 100 105 111 100 102 113 85 116 120 152 153 216 214
270 282 282 276 280 279 278 279 281 281 287 289 288 278 273 267 275 275 274 268 261 247 219 200 184 174 161 145 145 130 108 106 113 121 107 111 127 88 99 141 146 156 158 163
279 275 284 280 283 288 283 288 287 289 289 282 295 279 274 269 266 262 268 266 265 249 216 196 193 178 174 161 145 136 118 114 118 124 123 134 139 136 137 131 147 157 160 174
282 289 277 281 287 294 292 298 293 294 289 286 280 277 270 266 254 247 261 271 264 248 216 195 191 185 176 163 152 142 126 123 123 126 132 135 141 139 119 132 138 147 159 186
277 290 298 294 302 300 304 302 299 296 291 280 272 270 257 250 249 252 258 268 273 258 213 196 194 190 177 165 152 147 140 131 133 131 130 139 142 136 136 143 153 161 164 171
283 280 292 301 303 312 308 308 301 292 281 279 273 259 240 258 256 259 254 257 255 267 211 190 185 182 176 168 159 154 152 142 143 141 141 143 145 148 149 154 159 163 168 174
288 292 281 305 300 310 316 310 299 295 287 278 262 246 253 246 253 248 250 258 251 263 193 180 181 180 177 170 165 159 155 151 148 146 147 150 151 153 154 158 162 165 170 178
297 298 314 315 322 322 321 310 304 286 291 265 248 251 260 294 279 265 244 266 270 214 189 179 187 181 176 175 169 168 161 159 155 153 150 152 156 157 156 157 164 168 174 178
301 302 307 310 325 327 319 332 293 284 264 248 252 254 270 270 281 290 276 271 268 252 205 198 183 172 172 171 168 167 165 165 167 161 161 160 160 164 163 160 164 168 172 175
295 298 302 309 314 323 321 312 298 287 257 244 249 262 276 274 288 274 284 295 282 256 246 230 192 179 183 182 176 178 177 174 186 189 183 177 176 173 173 174 173 174 176 180
296 294 296 298 307 339 316 311 288 269 256 251 258 254 280 283 278 272 283 303 323 327 293 254 232 255 261 260 194 173 183 197 203 215 223 211 205 199 196 194 194 186 187 185
300 294 297 302 311 307 309 302 282 277 262 248 249 249 268 278 289 268 271 312 327 25 43 45 24 304 286 287 283 285 283 281 282 257 250 253 241 226 220 216 213 210 209 209
304 292 291 288 289 293 298 287 271 271 257 250 253 251 260 276 270 254 268 268 324 42 45 35 14 6 348 328 316 306 293 286 282 273 263 261 250 242 243 248 247 235 235 236
297 285 289 289 293 280 260 259 277 272 257 249 258 258 265 262 252 247 262 255 294 339 25 16 351 351 347 340 331 325 318 309 292 285 278 275 274 271 269 260 256 257 255 248
297 289 289 281 289 282 258 263 280 271 283 257 261 260 267 280 274 254 245 261 265 286 335 354 353 351 341 335 336 329 329 329 323 300 292 289 283 281 276 272 261 259 258 259
290 290 292 283 290 280 267 265 250 271 287 261 259 258 264 304 292 272 257 252 266 301 312 329 338 332 336 334 331 329 327 325 321 318 312 303 295 289 282 280 277 271 264 270
287 290 289 285 286 264 283 285 271 261 270 255 271 274 247 325 319 329 289 305 309 314 318 325 324 334 335 333 335 336 333 329 324 319 313 308 305 300 296 290 282 280 278 274
285 281 278 277 277 275 271 282 291 277 276 281 265 274 203 254 1 333 331 328 336 339 317 324 333 334 326 332 332 334 335 335 330 322 317 311 307 303 299 297 294 289 284 278
287 280 274 274 271 267 278 293 289 288 265 293 262 232 250 265 273 286 320 336 336 332 328 329 331 328 328 329 331 332 330 328 326 325 323 319 314 309 304 300 298 298 291 286
299 288 272 268 266 268 272 284 288 260 261 300 313 282 274 279 289 307 323 329 331 328 327 328 329 328 328 326 326 326 326 326 324 325 326 326 324 319 313 308 306 302 298 293
297 295 284 272 265 261 279 272 275 274 290 310 317 320 312 326 317 313 316 322 327 326 325 325 323 323 323 324 324 324 322 321 322 325 327 327 328 327 325 321 315 310 306 302
299 303 287 285 271 283 300 283 287 285 286 298 310 309 324 331 320 310 310 310 316 320 323 321 322 320 322 323 325 321 320 320 323 326 327 329 331 331 329 327 324 321 317 312
241 269 284 321 312 290 297 308 306 298 295 303 304 310 313 312 311 310 310 315 316 318 320 319 321 321 320 324 325 324 322 323 327 327 329 331 332 334 336 335 333 330 324 318
282 281 268 323 352 328 311 312 304 308 325 317 313 309 303 315 313 315 314 314 317 321 323 324 324 323 323 326 328 328 328 329 331 332 333 335 337 338 340 344 342 340 340 334
285 262 268 274 295 323 303 297 314 313 318 299 292 303 312 312 312 318 321 323 326 326 327 329 330 330 328 329 331 332 333 334 334 332 332 334 337 339 342 344 348 358 356 354